San Antonio Stinson, TX

3:32 AM CDT on April 25, 2017 (GMT -0500)
Stinson Municipal

Weather History for KSSF - September, 2013

Change the Weather History Date:

Sunday, September 29, 2013

  Actual Average Record
Temperature  
Mean Temperature 78 °F -  
Max Temperature 84 °F 85 °F 98 °F (2011)
Min Temperature 73 °F 63 °F 52 °F (2000)
Cooling Degree Days 12    
Growing Degree Days 28 (Base 50)    
Moisture  
Dew Point 70 °F    
Average Humidity 78    
Maximum Humidity 89    
Minimum Humidity 58    
Precipitation  
Precipitation 0.70 in - - ()
Sea Level Pressure  
Sea Level Pressure 29.96 in    
Wind  
Wind Speed 5 mph (NNE)    
Max Wind Speed 16 mph    
Max Gust Speed 24 mph    
Visibility 8 miles    
Events Rain , Thunderstorm    
Averages and records for this station are not official NWS values.
T = Trace of Precipitation, MM = Missing Value Source: NWS Daily Summary

Daily Weather History Graph

Daily Weather History Graph

Search for Another Location

Airport or City:

Trip Planner

Search our weather history database for the weather conditions in past years. The results will help you decide how hot, cold, wet, or windy it might be!

Date:

Astronomy

Sep. 29, 2013 Rise Set
Actual Time 7:26 AM CDT 7:21 PM CDT
Civil Twilight 7:02 AM CDT 7:45 PM CDT
Nautical Twilight 6:34 AM CDT 8:12 PM CDT
Astronomical Twilight 6:07 AM CDT 8:40 PM CDT
Moon 2:29 AM CDT (9/29) 3:59 PM CDT (9/29)
Length of Visible Light 12h 42m
Length of Day
11h 55m
Waning Crescent, 27% of the Moon is Illuminated
Sep 29
Waning Crescent
Oct 4
New
Oct 11
First Quarter
Oct 18
Full
Oct 26
Last Quarter

Hourly Weather History & Observations

Time (CDT) Temp. Heat Index Dew Point Humidity Pressure Visibility Wind Dir Wind Speed Gust Speed Precip Events Conditions
12:53 AM 80.1 °F 85.1 °F 75.0 °F 85% 29.92 in 6.0 mi Calm Calm - 0.04 in Rain Light Rain
1:01 AM 80.6 °F 86.2 °F 75.2 °F 84% 29.96 in 5.0 mi Calm Calm - 0.00 in Rain Light Rain
1:18 AM 80.6 °F 86.2 °F 75.2 °F 84% 29.96 in 7.0 mi Calm Calm - 0.01 in Rain Light Rain
1:38 AM 80.6 °F 86.2 °F 75.2 °F 84% 29.96 in 10.0 mi Calm Calm - 0.01 in Thunderstorm Overcast
1:53 AM 80.1 °F 84.5 °F 73.9 °F 81% 29.93 in 10.0 mi SSW 16.1 mph 24.2 mph 0.01 in Rain , Thunderstorm Light Thunderstorms and Rain
2:01 AM 78.8 °F - 71.6 °F 78% 29.96 in 10.0 mi South 13.8 mph 21.9 mph 0.00 in Rain , Thunderstorm Light Thunderstorms and Rain
2:08 AM 78.8 °F - 71.6 °F 78% 29.96 in 9.0 mi South 9.2 mph 20.7 mph 0.00 in Rain , Thunderstorm Light Thunderstorms and Rain
2:26 AM 77.0 °F - 71.6 °F 83% 29.97 in 10.0 mi WSW 4.6 mph - 0.00 in Rain Light Rain
2:46 AM 78.8 °F - 71.6 °F 78% 29.98 in 6.0 mi WNW 5.8 mph - 0.02 in Rain , Thunderstorm Light Rain
2:53 AM 78.1 °F - 72.0 °F 81% 29.94 in 4.0 mi WNW 5.8 mph - 0.04 in Rain , Thunderstorm Rain
3:01 AM 78.8 °F - 71.6 °F 78% 29.97 in 3.0 mi WNW 5.8 mph - 0.02 in Rain Rain
3:17 AM 78.8 °F - 73.4 °F 83% 29.97 in 5.0 mi NNW 3.5 mph - 0.05 in Rain Light Rain
3:41 AM 77.0 °F - 71.6 °F 83% 29.97 in 10.0 mi NNE 9.2 mph - 0.06 in Rain , Thunderstorm Light Rain
3:53 AM 77.0 °F - 71.1 °F 82% 29.93 in 10.0 mi NNE 9.2 mph - 0.06 in Rain Light Rain
4:13 AM 77.0 °F - 71.6 °F 83% 29.97 in 10.0 mi NE 8.1 mph - 0.00 in Rain Light Rain
4:27 AM 77.0 °F - 71.6 °F 83% 29.96 in 10.0 mi NE 4.6 mph - 0.00 in Rain , Thunderstorm Light Rain
4:41 AM 77.0 °F - 71.6 °F 83% 29.97 in 10.0 mi NNE 4.6 mph - 0.00 in Rain , Thunderstorm Light Rain
4:53 AM 77.0 °F - 71.1 °F 82% 29.93 in 10.0 mi NE 8.1 mph - 0.00 in Rain Light Rain
5:08 AM 77.0 °F - 71.6 °F 83% 29.97 in 10.0 mi NE 4.6 mph - 0.00 in Rain Light Rain
5:16 AM 77.0 °F - 71.6 °F 83% 29.98 in 10.0 mi ENE 5.8 mph - 0.00 in Rain Light Rain
5:22 AM 77.0 °F - 71.6 °F 83% 29.98 in 10.0 mi East 5.8 mph - 0.01 in Rain , Thunderstorm Light Rain
5:33 AM 77.0 °F - 71.6 °F 83% 29.99 in 6.0 mi ENE 3.5 mph - 0.02 in Rain , Thunderstorm Rain
5:41 AM 75.2 °F - 71.6 °F 89% 29.99 in 6.0 mi ENE 6.9 mph - 0.02 in Rain , Thunderstorm Light Rain
5:50 AM 75.2 °F - 71.6 °F 89% 29.99 in 10.0 mi East 4.6 mph - 0.02 in Rain Light Rain
5:53 AM 75.9 °F - 71.1 °F 85% 29.96 in 10.0 mi ENE 5.8 mph - 0.02 in Rain Light Rain
6:06 AM 75.2 °F - 71.6 °F 89% 30.00 in 10.0 mi NE 6.9 mph - 0.00 in Thunderstorm Overcast
6:20 AM 75.2 °F - 71.6 °F 89% 30.00 in 2.5 mi ENE 5.8 mph - 0.03 in Rain Rain
6:29 AM 75.2 °F - 71.6 °F 89% 30.00 in 5.0 mi ENE 6.9 mph - 0.04 in Rain Light Rain
6:46 AM 75.2 °F - 71.6 °F 89% 30.00 in 1.8 mi NE 3.5 mph - 0.09 in Rain Heavy Rain
6:53 AM 75.9 °F - 71.1 °F 85% 29.97 in 1.0 mi NE 4.6 mph - 0.19 in Rain Heavy Rain
7:07 AM 75.2 °F - 71.6 °F 89% 30.00 in 1.2 mi NE 9.2 mph - 0.21 in Rain Heavy Rain
7:17 AM 75.2 °F - 71.6 °F 89% 30.00 in 1.5 mi West 4.6 mph - 0.30 in Rain Heavy Rain
7:22 AM 75.2 °F - 71.6 °F 89% 29.99 in 2.0 mi NW 5.8 mph - 0.32 in Rain Rain
7:32 AM 75.2 °F - 71.6 °F 89% 29.99 in 4.0 mi North 8.1 mph - 0.34 in Rain Light Rain
7:53 AM 75.0 °F - 70.0 °F 84% 29.96 in 10.0 mi North 6.9 mph - 0.34 in   Overcast
8:53 AM 73.9 °F - 69.1 °F 85% 29.96 in 10.0 mi North 8.1 mph - N/A   Partly Cloudy
9:08 AM 73.4 °F - 69.8 °F 88% 30.00 in 10.0 mi North 6.9 mph - N/A   Mostly Cloudy
9:20 AM 73.4 °F - 68.0 °F 83% 30.00 in 10.0 mi North 9.2 mph - N/A   Scattered Clouds
9:53 AM 73.9 °F - 66.9 °F 79% 29.99 in 10.0 mi NNE 9.2 mph - N/A   Scattered Clouds
10:14 AM 75.2 °F - 66.2 °F 73% 30.03 in 10.0 mi North 10.4 mph - N/A   Mostly Cloudy
10:26 AM 75.2 °F - 66.2 °F 73% 30.04 in 10.0 mi North 8.1 mph 17.3 mph N/A   Mostly Cloudy
10:53 AM 75.9 °F - 66.9 °F 74% 30.01 in 10.0 mi NNE 8.1 mph - N/A   Overcast
11:53 AM 77.0 °F - 66.9 °F 71% 30.00 in 10.0 mi North 6.9 mph - N/A   Overcast
12:53 PM 81.0 °F 83.3 °F 66.9 °F 62% 29.98 in 10.0 mi NE 8.1 mph - N/A   Overcast
1:13 PM 80.6 °F 82.7 °F 66.2 °F 61% 30.00 in 10.0 mi NNE 9.2 mph - N/A   Overcast
1:39 PM 78.8 °F - 66.2 °F 65% 29.99 in 10.0 mi North 4.6 mph - N/A   Overcast
1:53 PM 79.0 °F - 66.9 °F 66% 29.95 in 10.0 mi North 6.9 mph - N/A   Overcast
2:53 PM 82.9 °F 85.4 °F 66.9 °F 58% 29.91 in 10.0 mi North 8.1 mph - N/A   Overcast
3:53 PM 82.9 °F 85.8 °F 68.0 °F 60% 29.89 in 10.0 mi NNE 6.9 mph - N/A   Overcast
4:53 PM 82.9 °F 85.4 °F 66.9 °F 58% 29.89 in 10.0 mi NE 5.8 mph - N/A   Overcast
5:35 PM 82.4 °F 84.6 °F 66.2 °F 58% 29.92 in 10.0 mi NNE 4.6 mph - N/A   Overcast
5:53 PM 82.9 °F 85.4 °F 66.9 °F 58% 29.89 in 10.0 mi NE 5.8 mph - N/A   Overcast
6:53 PM 81.0 °F 83.3 °F 66.9 °F 62% 29.89 in 10.0 mi ENE 6.9 mph - N/A   Overcast
7:16 PM 80.6 °F 82.7 °F 66.2 °F 61% 29.93 in 10.0 mi ENE 8.1 mph - N/A   Overcast
7:53 PM 79.0 °F - 66.9 °F 66% 29.90 in 10.0 mi ENE 6.9 mph - N/A   Scattered Clouds
8:53 PM 77.0 °F - 66.0 °F 69% 29.92 in 10.0 mi ENE 3.5 mph - N/A   Scattered Clouds
9:53 PM 75.9 °F - 66.0 °F 71% 29.93 in 10.0 mi NNE 3.5 mph - N/A   Clear
10:53 PM 75.0 °F - 66.9 °F 76% 29.94 in 10.0 mi Calm Calm - N/A   Clear
11:53 PM 73.9 °F - 66.9 °F 79% 29.93 in 10.0 mi Calm Calm - N/A   Scattered Clouds